Location: Mieders
(47.1667°N, 11.3833°E)
Time: 20:29:04
(UTC+00:00)

Daily predictions for brighter satellites

Satellite Brightness Start Highest point End
(mag) Time Altitude Azimuth Time Altitude Azimuth Time Altitude Azimuth
MOS 1 4.4 19:03:00 10° SSE 19:08:38 74° ENE 19:14:18 10° NNW
MOS 1-B Rocket 4.4 19:04:29 10° NNE 19:12:16 72° ESE 19:18:48 10° S
SJ-6B 3.5 19:15:58 10° S 19:19:46 57° W 19:23:41 10° NNW
Cosmos 1151 Rocket 4.5 19:21:29 10° SE 19:24:41 20° E 19:27:55 10° NE
SL-08 ROCKET BODY 4.4 19:19:01 10° N 19:24:59 86° E 19:30:50 10° S
Cosmos 2278 Rocket 4.1 19:25:09 10° E 19:25:50 10° E 19:26:31 10° E
Terra 3.9 19:25:00 10° E 19:27:06 13° NE 19:29:11 10° NNE
USA 290 3.1 19:24:32 10° N 19:27:34 35° ENE 19:30:10 13° SE
Ariane Rocket 3.1 19:24:24 10° SSE 19:29:27 79° WSW 19:34:33 10° NNW
CREW DRAGON DEMO-1 DEB 4.3 19:27:42 10° WNW 19:30:06 29° N 19:32:30 10° ENE
Cosmos 2263 Rocket 4.2 19:27:45 10° WSW 19:32:46 33° NW 19:37:50 10° NNE
FALCON 9 DEB 4.0 19:30:25 10° WNW 19:33:12 32° SW 19:35:41 12° SSE
CZ-2C R/B 4.4 19:30:43 10° NNE 19:34:47 33° E 19:38:51 10° SSE
Cosmos 1606 2.8 19:31:28 10° SSW 19:35:14 77° W 19:39:02 10° N
Cosmos 1844 Rocket 2.6 19:31:49 10° SSW 19:37:20 72° ESE 19:42:55 10° NNE
SPOT 1/Viking Rocket 4.1 19:36:09 12° SE 19:40:45 45° ENE 19:45:40 10° N
SL-4 R/B 2.9 19:37:40 10° WNW 19:41:50 44° SW 19:45:35 14° SSE
MetOp-B 4.3 19:36:53 11° SSE 19:41:59 58° ENE 19:47:15 10° N
USA 308 4.4 19:38:48 10° WNW 19:42:43 33° N 19:46:38 10° ENE
Cosmos 1805 Rocket 3.5 19:38:25 10° N 19:42:47 90° E 19:47:08 10° S
Cosmos 1386 Rocket 4.4 19:38:29 10° N 19:44:32 82° E 19:50:38 10° S
X-37B 0.7 19:42:23 10° W 19:45:32 58° S 19:47:53 16° ESE
Cosmos 1354 Rocket 4.4 19:41:10 10° S 19:46:01 41° ESE 19:50:56 10° NE
ARIANE 5 R/B 3.6 19:43:07 14° ESE 19:46:10 31° ENE 19:49:59 10° N
Cosmos 1633 Rocket 3.6 19:47:02 10° N 19:51:14 42° ENE 19:54:17 17° SE
Cosmos 1745 Rocket 4.0 19:45:31 10° N 19:51:47 87° W 19:57:55 10° S
SPOT 3 Rocket 3.5 19:49:03 10° SSE 19:54:14 90° W 19:59:25 10° NNW
Cosmos 1437 4.1 19:54:17 17° E 19:54:26 17° E 19:56:24 10° NE
Cosmos 1709 Rocket 4.1 19:48:33 10° N 19:54:37 60° ENE 19:59:47 14° SSE
Landsat 7 3.8 19:52:36 12° SSE 19:57:01 84° ENE 20:01:48 10° NNW
Cosmos 1812 4.3 19:56:30 17° ESE 19:57:33 18° E 20:00:16 10° NE
Cosmos 1844 3.7 19:51:49 10° SSW 19:57:34 83° ESE 20:03:16 10° NNE
Cosmos 968 Rocket 3.9 19:53:07 10° SSW 19:58:21 67° WNW 20:03:35 10° NNE
BREEZE-M DEB (TANK) 4.1 19:55:07 10° W 19:59:23 63° SSW 20:06:54 14° ESE
ATLAS 5 CENTAUR R/B 2.4 19:55:11 10° NW 20:00:44 79° NE 20:05:41 18° SE
NOSS 3-3 (A) 4.3 19:57:11 10° S 20:02:25 39° ESE 20:08:18 10° NE
NOSS 3-3 (C) 4.3 19:57:17 10° S 20:02:32 39° ESE 20:08:24 10° NE
Cosmos 1328 Rocket 4.1 19:59:49 17° SSE 20:02:46 39° E 20:06:53 10° NNE
BREEZE M DEB (TANK) 4.4 20:01:09 10° W 20:05:19 81° N 20:20:30 10° E
ATLAS 2AS CENTAUR R/B 4.4 19:58:51 10° NW 20:05:20 29° NNE 20:11:24 10° E
Cosmos 1486 Rocket 4.3 20:00:33 10° SSW 20:05:52 71° WNW 20:11:14 10° NNE
IGS 5A 3.8 20:04:31 12° S 20:08:17 64° WSW 20:12:25 10° NNW
Meteor 1-26 Rocket 4.2 20:02:51 10° S 20:08:30 63° E 20:13:59 10° NNE
CARTOSAT-1 4.0 20:07:01 21° SE 20:09:34 47° ENE 20:13:43 10° N
Cosmos 1833 Rocket 3.5 20:05:01 10° NNW 20:10:19 39° NE 20:14:00 18° ESE
Cosmos 2315 Rocket 4.1 20:04:53 10° S 20:11:09 64° E 20:17:27 10° NNE
CRYOSAT 2 4.4 20:07:54 16° SSE 20:11:44 71° E 20:16:38 10° N
S3M 4.3 20:05:34 10° SSW 20:11:56 73° W 20:18:18 10° N
BREEZE-M R/B 1.5 20:11:02 10° WSW 20:13:34 77° SSE 20:15:12 19° ENE
Cosmos 1666 4.1 20:13:14 10° NNE 20:16:17 23° ENE 20:17:21 20° E
Cosmos 1666 Rocket 3.5 20:12:27 10° N 20:16:54 87° W 20:19:58 19° S
Meteor 2-17 Rocket 4.5 20:13:45 10° N 20:19:56 86° W 20:25:05 15° S
Cosmos 1933 3.9 20:18:22 10° SSW 20:22:21 57° WNW 20:26:21 10° N
USA 245 1.9 20:23:48 60° S 20:24:07 78° WSW 20:26:21 10° NNW
Iridium 4 Rocket 4.4 20:22:03 23° SE 20:25:01 40° E 20:30:28 10° NNE
USA 305 4.0 20:21:03 10° NW 20:25:06 40° NNE 20:28:38 13° E
Cosmos 783 Rocket 4.5 20:21:01 10° NNW 20:26:18 90° ENE 20:29:27 25° SSE
Cosmos 1242 Rocket 3.2 20:24:24 10° SSW 20:27:55 55° WNW 20:31:26 10° N
BREEZE M DEB (TANK) 2.0 20:28:50 10° WNW 20:33:17 65° N 20:34:07 36° ENE
Resurs 01 Rocket 3.1 20:29:58 10° SSW 20:33:58 32° W 20:37:59 10° NNW
Cosmos 773 Rocket 4.0 20:28:47 10° NNW 20:34:08 84° ENE 20:37:01 28° SSE
Spot 2 Rocket 3.5 20:34:12 23° S 20:37:22 81° WSW 20:42:27 10° NNW
SJ 16-02 2.3 20:38:20 28° ESE 20:38:40 28° E 20:42:28 10° NE
OE (NEXTSAT) 4.2 20:35:42 10° W 20:39:10 69° S 20:39:58 47° ESE
Cosmos 2228 Rocket 4.3 20:40:06 24° E 20:40:38 25° E 20:44:16 10° NNE
COSMOS 2406 3.4 20:35:11 10° NNW 20:40:50 63° ENE 20:43:43 29° SE
Cosmos 2082 Rocket 3.1 20:38:19 10° NNW 20:43:32 37° NE 20:46:29 22° ESE
Meteor 2-6 Rocket 4.3 20:41:14 28° SSE 20:43:56 55° E 20:49:18 10° NNE
USA 306 3.8 20:40:12 10° NW 20:44:19 46° NNE 20:47:01 20° E
Cosmos 1500 3.1 20:42:07 10° NNW 20:45:53 80° W 20:47:10 39° S
CZ-4C R/B 3.0 20:39:01 10° NW 20:46:11 79° NE 20:51:18 26° SE
Cosmos 1782 3.4 20:43:16 15° SSW 20:46:25 56° WNW 20:50:22 10° N
ERS-1 Rocket 2.9 20:50:52 31° SSE 20:53:18 86° WSW 20:58:22 10° NNW
deb Kosmos-1763 4.3 20:51:25 10° NNW 20:54:52 49° ENE 20:55:19 45° E
SPOT 5 3.0 20:52:52 32° SSE 20:55:17 85° WSW 21:00:33 10° NNW
H-2A R/B 3.6 20:52:54 10° NNE 20:57:01 53° E 20:57:49 46° SE
Meteor 1-11 Rocket 4.1 20:54:25 10° N 21:00:18 54° ENE 21:02:44 33° SE
Cosmos 1271 Rocket 3.0 21:00:22 46° ESE 21:00:42 48° E 21:04:35 10° NNE
Cosmos 1151 Rocket 4.2 20:58:02 11° SW 21:01:56 41° WNW 21:06:07 10° N
Cosmos 1777 Rocket 3.9 20:58:39 21° SSW 21:02:13 86° ESE 21:07:28 10° NNE
Terra 1.7 21:02:22 40° SSE 21:04:05 84° ENE 21:08:53 10° NNW
CREW DRAGON DEMO-1 DEB 3.6 21:02:16 10° WNW 21:04:38 41° N 21:04:38 41° N
Cosmos 2278 Rocket 2.1 21:05:44 27° S 21:08:49 69° ESE 21:14:27 10° NNE
USA 307 3.4 21:05:30 10° NW 21:09:44 56° NNE 21:11:26 32° E
Cosmos 1340 Rocket 4.1 21:10:10 10° N 21:13:43 27° ENE 21:14:05 27° E
CZ-4B DEB 4.4 21:16:05 67° W 21:16:05 67° W 21:19:16 10° NNW
Cosmos 1515 Rocket 4.0 21:17:35 30° SW 21:19:36 59° WNW 21:23:58 10° N
Cosmos 1544 4.1 21:17:53 10° N 21:20:56 32° ENE 21:20:56 32° ENE
X-37B 2.8 21:19:03 10° W 21:20:09 18° WSW 21:20:09 18° WSW
Cosmos 2084 3.6 21:17:54 11° SW 21:21:54 68° NW 21:26:10 10° NE
ARIANE 5 R/B 4.1 21:20:39 21° SW 21:22:36 29° W 21:26:24 10° NW
USA 308 3.1 21:18:58 10° WNW 21:23:15 65° NNE 21:24:24 45° E
Cosmos 1869 Rocket 3.5 21:19:02 10° N 21:23:21 63° ENE 21:23:54 57° ESE
Cosmos 1536 3.0 21:19:35 10° N 21:23:35 53° ENE 21:23:48 53° E
Meteor 1-10 Rocket 4.1 21:22:59 35° SSW 21:25:29 88° W 21:31:10 10° N
Cosmos 1943 Rocket 3.7 21:30:26 20° E 21:30:26 20° E 21:33:52 10° NE
Cosmos 2154 Rocket 4.0 21:24:18 10° N 21:30:42 81° E 21:33:03 42° SSE
Cosmos 1812 4.1 21:31:31 25° WSW 21:33:03 35° WNW 21:36:39 10° N
Cosmos 2184 Rocket 4.2 21:32:29 10° NNW 21:38:39 63° W 21:41:19 34° SSW
ALOS 2 4.1 21:38:42 23° E 21:39:24 24° ENE 21:42:57 10° N
Cosmos 44 4.5 21:34:57 10° NNW 21:40:06 41° NE 21:42:24 27° E
Cosmos 990 Rocket 4.3 21:40:01 46° ESE 21:40:18 46° ESE 21:45:19 10° NNE
Cosmos 1707 Rocket 4.0 21:42:54 45° E 21:42:54 45° E 21:46:55 10° NNE
NOSS 3-4 (A) 3.8 21:36:52 10° NW 21:43:52 88° SW 21:47:02 40° SE
NOSS 3-4 (C) 3.8 21:36:59 10° NW 21:43:59 89° SW 21:47:09 39° SE
ATLAS 5 CENTAUR R/B 3.9 21:40:33 10° WNW 21:45:07 24° WSW 21:47:13 20° SW
Cosmos 962 Rocket 4.5 21:43:59 10° N 21:50:07 68° E 21:51:48 48° SE
Cosmos 1666 4.2 21:48:39 10° NNW 21:51:48 26° W 21:52:11 26° W
Cosmos 2112 Rocket 4.2 21:47:21 10° NNW 21:52:41 64° ENE 21:53:50 51° ESE
Cosmos 1833 Rocket 3.5 21:49:03 10° NW 21:54:14 38° WSW 21:55:42 33° SW
Nadezhda 1 Rocket 4.1 21:51:52 37° SSW 21:54:31 77° W 22:00:49 10° N
Cosmos 1238 Rocket 4.1 21:50:10 10° N 21:56:28 55° ENE 21:57:51 45° ESE
Cosmos 1743 3.0 21:53:26 10° N 21:56:52 62° NE 21:56:52 62° NE
ATLAS 2AS CENTAUR R/B 2.9 21:50:07 10° NW 21:57:35 73° NE 22:00:31 38° ESE
SeaSat 1 4.5 21:56:55 10° ENE 21:58:33 14° E 21:58:33 14° E
USA 215 3.7 21:55:02 15° E 22:00:28 57° NNE 22:06:51 10° NW
BREEZE-M DEB (TANK) 4.2 21:57:13 10° W 22:03:12 38° NNW 22:04:40 21° NE
Cosmos 2297 3.9 22:03:58 49° ESE 22:04:16 50° ESE 22:09:45 10° NE
USA 305 3.2 22:01:02 10° WNW 22:04:41 59° W 22:04:41 59° W
Cosmos 2181 Rocket 4.2 22:07:22 47° SE 22:08:34 55° E 22:14:32 10° NNE
Cosmos 1733 Rocket 3.0 22:11:52 10° N 22:16:02 74° NE 22:16:02 74° NE
SJ 16-02 2.8 22:15:14 23° WSW 22:17:08 33° WNW 22:21:12 10° N
Cosmos 2228 Rocket 4.3 22:17:34 30° WSW 22:18:41 34° WNW 22:22:46 10° N
Cosmos 1680 Rocket 3.5 22:15:34 10° NNW 22:20:52 68° WSW 22:21:27 62° SSW
Meteor 1-27 Rocket 4.4 22:18:37 33° SW 22:20:55 52° WNW 22:26:42 10° N
Cosmos 2341 Rocket 4.0 22:15:03 10° N 22:21:29 82° W 22:23:08 53° S
Cosmos 2366 rocket 4.0 22:16:33 10° N 22:22:42 68° ENE 22:24:07 52° SE
Cosmos 1937 Rocket 3.4 22:24:06 65° ESE 22:24:10 65° ESE 22:29:18 10° NNE
USA 306 3.9 22:20:12 10° WNW 22:23:05 37° W 22:23:05 37° W
Cosmos 1818 3.9 22:20:48 10° NNW 22:26:15 60° NE 22:27:40 45° ESE
Cosmos 2082 Rocket 2.8 22:22:27 10° NW 22:27:40 40° WSW 22:28:19 39° SW
Cosmos 1908 Rocket 4.5 22:23:41 10° N 22:27:55 39° ENE 22:27:56 39° ENE
Cosmos 967 Rocket 4.4 22:27:43 57° SSE 22:28:36 64° ESE 22:34:48 10° NE
Cosmos 1900 4.4 22:33:48 65° ESE 22:33:48 65° ESE 22:38:34 10° NE
CZ-4C R/B 4.0 22:28:06 10° NW 22:34:29 31° WSW 22:36:29 28° SW
Gbstr 26 Del rocket 4.2 22:28:34 10° WNW 22:35:51 72° NNE 22:40:00 21° E
ERBS 4.2 22:34:18 10° NW 22:37:04 28° NNE 22:37:04 28° NNE
Cosmos 858 Rocket 4.3 22:37:14 76° SSE 22:37:31 80° ESE 22:42:46 10° NNE
Cosmos 2218 Rocket 3.9 22:34:26 10° N 22:40:44 88° W 22:42:06 58° S
Meteor 1-19 Rocket 3.9 22:40:49 72° S 22:41:23 85° ESE 22:46:49 10° NNE
Terra 4.2 22:41:15 11° WSW 22:42:29 12° W 22:44:27 10° WNW
Okean 1 3.9 22:46:34 54° NW 22:46:34 54° NW 22:50:02 10° N
Cosmos 489 Rocket 4.4 22:41:48 10° NNW 22:48:04 88° ENE 22:49:22 59° SSE
Cosmos 1340 Rocket 4.4 22:46:38 10° NNW 22:49:40 26° W 22:49:40 26° W
Cosmos 1461 4.1 22:53:28 37° E 22:53:28 37° E 22:56:46 10° NE
Cosmos 2278 Rocket 4.2 22:48:50 10° W 22:53:26 25° NW 22:58:03 10° N
Cosmos 1703 Rocket 4.2 22:57:18 48° ENE 22:57:18 48° ENE 23:01:02 10° NNE
Cosmos 1862 Rocket 3.9 22:57:00 56° WNW 22:57:00 56° WNW 23:01:05 10° N
Cosmos 1898 Rocket 4.1 22:57:39 40° WSW 22:59:00 50° WNW 23:04:13 10° NNE
Cosmos 1782 Rocket 4.3 22:55:02 10° N 22:59:17 45° ENE 22:59:17 45° ENE
Nadezhda 3 Rocket 4.3 23:02:11 47° SE 23:03:22 53° E 23:09:23 10° NNE
Cosmos 2369 Rocket 2.3 23:03:27 58° ESE 23:03:39 58° ESE 23:09:11 10° NNE
COBE Rocket 3.9 23:07:04 69° WSW 23:07:13 69° W 23:12:21 10° NNW
RESURS DK-1 3.5 23:05:38 10° NNW 23:09:32 37° NE 23:09:53 36° ENE
Gblst 52 Del rocket 4.5 23:03:39 10° WNW 23:10:27 79° NNE 23:14:42 20° ESE
Cosmos 1975 3.8 23:09:12 10° NNW 23:12:12 40° NW 23:12:12 40° NW
Cosmos 1943 Rocket 2.3 23:11:55 54° WSW 23:13:03 69° WNW 23:18:40 10° NNE
SL-27 R/B 4.4 23:11:04 10° N 23:13:17 25° NE 23:13:17 25° NE
Cosmos 2084 Rocket 4.1 23:10:08 10° NW 23:13:20 48° WNW 23:13:20 48° WNW
ALOS 2 3.6 23:16:05 37° W 23:16:05 37° W 23:19:41 10° NNW
SL-08 R/B 4.4 23:12:14 10° N 23:18:26 80° W 23:19:37 60° SSW
Cosmos 1867 4.2 23:18:57 42° ESE 23:18:57 42° ESE 23:23:46 10° NE
PSLV R/B 4.2 23:14:34 10° NNE 23:18:26 48° ENE 23:18:26 48° ENE
Cosmos 1607 4.3 23:19:25 48° SE 23:20:00 49° ESE 23:26:13 10° NE
DNEPR-1 R/B 4.2 23:19:56 53° WSW 23:21:09 71° NW 23:26:06 10° NE
Meteor 2-4 Rocket 3.7 23:20:31 64° SW 23:21:24 78° WNW 23:27:06 10° N
Cosmos 44 4.2 23:16:20 10° NW 23:20:48 40° W 23:20:48 40° W
Cosmos 2263 4.3 23:22:38 59° SE 23:23:04 61° ESE 23:28:48 10° NNE
Okean 3 4.0 23:28:08 51° ENE 23:28:08 51° ENE 23:31:50 10° NNE
EO 1 Del DPAF 4.3 23:24:56 10° NNE 23:27:38 41° NE 23:27:38 41° NE
Okean 1-7 3.2 23:30:15 66° NNW 23:30:15 66° NNW 23:34:05 10° N
Cosmos 372 Rocket 4.1 23:30:36 57° W 23:31:11 62° WNW 23:36:15 10° NNE
ATLAS CENTAUR R/B 3.3 23:33:01 18° ENE 23:33:01 18° ENE 23:34:23 10° ENE
Helios 1A 4.1 23:31:38 34° E 23:32:04 34° ENE 23:35:51 10° N
Sich 1 Rocket 4.0 23:30:53 10° N 23:35:23 54° ENE 23:35:34 53° E
Cosmos 1125 Rocket 3.8 23:35:51 53° ESE 23:36:02 53° ESE 23:41:07 10° NNE
SeaSat 1 2.3 23:32:57 10° NNE 23:37:55 83° WNW 23:38:19 75° WSW
Cosmos 1656 Rocket 3.5 23:39:04 67° SE 23:39:29 70° ESE 23:44:59 10° NNE
Cosmos 494 Rocket 4.0 23:34:18 10° NNW 23:39:31 74° ENE 23:40:13 63° ESE
Cosmos 2242 Rocket 4.0 23:40:22 53° WNW 23:40:22 53° WNW 23:44:34 10° N
USA 215 3.2 23:42:20 53° S 23:43:29 60° SW 23:49:57 10° WNW
Cosmos 2239 Rocket 4.4 23:37:11 10° N 23:43:29 82° W 23:44:52 58° S
Cosmos 1833 4.1 23:40:38 10° NNW 23:46:26 89° ENE 23:47:33 60° SSE
ATLAS 2AS CENTAUR R/B 3.7 23:41:56 10° NW 23:47:52 28° WSW 23:47:57 28° WSW
CZ-2D R/B 3.8 23:48:08 10° NE 23:52:21 23° E 23:53:55 20° ESE
